Weather History for KSPD - November, 2012

Change the Weather History Date:

Sunday, November 4, 2012

  Actual Average Record
Temperature  
Mean Temperature 52 °F -  
Max Temperature 71 °F 62 °F 81 °F (2007)
Min Temperature 32 °F 31 °F 24 °F (2003)
Degree Days  
Heating Degree Days 13 18  
Month to date heating degree days 48 71  
Since 1 July heating degree days 495 516  
Cooling Degree Days 0 0  
Month to date cooling degree days 0 0  
Year to date cooling degree days 1422 1028  
Growing Degree Days 3 (Base 50)    
Moisture  
Dew Point 25 °F    
Average Humidity 42    
Maximum Humidity 70    
Minimum Humidity 14    
Precipitation  
Precipitation 0.00 in 0.02 in 0.04 in (2002)
Month to date precipitation 0.00 0.09  
Year to date precipitation 8.07 16.55  
Sea Level Pressure  
Sea Level Pressure 30.09 in    
Wind  
Wind Speed 9 mph (NNW)    
Max Wind Speed 17 mph    
Max Gust Speed 21 mph    
T = Trace of Precipitation, MM = Missing Value Source: NWS Daily Summary

Daily Weather History Graph

Daily Weather History Graph

Search for Another Location

Airport or City:

Trip Planner

Search our weather history database for the weather conditions in past years. The results will help you decide how hot, cold, wet, or windy it might be!

Date:

Astronomy

Nov. 04, 2012 Rise Set
Actual Time 6:18 AM MST 4:48 PM MST
Civil Twilight 5:51 AM MST 5:16 PM MST
Nautical Twilight 5:20 AM MST 5:47 PM MST
Astronomical Twilight 4:49 AM MST 6:17 PM MST
Moon 9:30 PM MST (11/4) 11:02 AM MST (11/4)
Length of Visible Light 11h 24m
Length of Day
10h 30m
Waning Gibbous, 71% of the Moon is Illuminated
Nov 4
Waning Gibbous
Nov 6
Last Quarter
Nov 13
New
Nov 20
First Quarter
Nov 28
Full

Hourly Weather History & Observations

Time (MST) Temp. Windchill Dew Point Humidity Pressure Visibility Wind Dir Wind Speed Gust Speed Precip Events Conditions
12:56 AM 37.9 °F 32.1 °F 28.0 °F 68% 30.12 in - SW 8.1 mph - N/A   Unknown
1:56 AM 42.1 °F 36.1 °F 28.9 °F 60% 30.09 in - SW 10.4 mph - N/A   Unknown
1:56 AM 42.1 °F 35.2 °F 28.0 °F 58% 30.09 in - WSW 12.7 mph - N/A   Unknown
2:56 AM 39.9 °F 33.4 °F 28.0 °F 63% 30.07 in - WSW 10.4 mph - N/A   Unknown
3:56 AM 37.9 °F 32.7 °F 28.0 °F 68% 30.09 in - West 6.9 mph - N/A   Unknown
4:56 AM 36.0 °F - 27.0 °F 70% 30.12 in - Calm Calm - N/A   Unknown
5:56 AM 37.0 °F - 27.0 °F 67% 30.12 in - Calm Calm - N/A   Unknown
6:56 AM 39.9 °F 32.9 °F 27.0 °F 60% 30.12 in - NW 11.5 mph - N/A   Unknown
7:56 AM 52.0 °F - 28.9 °F 41% 30.11 in - NNW 10.4 mph - N/A   Unknown
8:56 AM 60.1 °F - 28.0 °F 30% 30.08 in - North 12.7 mph - N/A   Unknown
9:56 AM 63.0 °F - 28.9 °F 28% 30.07 in - North 11.5 mph - N/A   Unknown
10:56 AM 66.0 °F - 27.0 °F 23% 30.06 in - North 12.7 mph - N/A   Unknown
11:56 AM 70.0 °F - 25.0 °F 18% 30.02 in - North 9.2 mph - N/A   Unknown
12:56 PM 69.1 °F - 25.0 °F 19% 29.99 in - North 8.1 mph - N/A   Unknown
1:56 PM 70.0 °F - 23.0 °F 17% 29.99 in - NE 9.2 mph - N/A   Unknown
2:56 PM 68.0 °F - 17.1 °F 14% 30.01 in - North 12.7 mph - N/A   Unknown
3:56 PM 62.1 °F - 21.0 °F 21% 30.04 in - North 6.9 mph - N/A   Unknown
5:56 PM 51.1 °F - 21.0 °F 31% 30.11 in - NNW 6.9 mph - N/A   Unknown
6:56 PM 46.9 °F - 21.0 °F 36% 30.14 in - NNW 8.1 mph - N/A   Unknown
7:56 PM 48.9 °F - 21.0 °F 33% 30.12 in - North 11.5 mph - N/A   Unknown
8:56 PM 46.9 °F - 23.0 °F 39% 30.13 in - North 11.5 mph - N/A   Unknown
9:56 PM 41.0 °F 34.7 °F 23.0 °F 49% 30.16 in - North 10.4 mph - N/A   Unknown
10:56 PM 43.0 °F 36.8 °F 25.0 °F 49% 30.17 in - North 11.5 mph - N/A   Unknown